TimePST,TemperatureF,Dew PointF,Humidity,Sea Level PressureIn,VisibilityMPH,Wind Direction,Wind SpeedMPH,Gust SpeedMPH,PrecipitationIn,Events,Conditions,WindDirDegrees,DateUTC
12:17 AM,32.0,30.2,93,30.28,3.0,SSE,3.5,-,N/A,,Overcast,150,2012-12-31 08:17:00
12:49 AM,32.0,30.2,93,30.28,10.0,Variable,3.5,-,N/A,,Partly Cloudy,0,2012-12-31 08:49:00
12:53 AM,32.0,30.0,92,30.30,10.0,Calm,Calm,-,N/A,,Partly Cloudy,0,2012-12-31 08:53:00
1:53 AM,32.0,28.9,88,30.30,10.0,SSE,4.6,-,N/A,,Clear,150,2012-12-31 09:53:00
2:53 AM,32.0,28.9,88,30.30,10.0,Calm,Calm,-,N/A,,Mostly Cloudy,0,2012-12-31 10:53:00
3:53 AM,32.0,28.9,88,30.28,10.0,SSE,5.8,-,N/A,,Overcast,160,2012-12-31 11:53:00
4:53 AM,32.0,28.9,88,30.27,10.0,SE,3.5,-,N/A,,Overcast,140,2012-12-31 12:53:00
5:53 AM,32.0,28.9,88,30.25,10.0,Calm,Calm,-,N/A,,Clear,0,2012-12-31 13:53:00
6:53 AM,33.1,28.9,85,30.26,10.0,Calm,Calm,-,N/A,,Clear,0,2012-12-31 14:53:00
7:53 AM,33.1,28.9,85,30.27,10.0,South,3.5,-,N/A,,Partly Cloudy,190,2012-12-31 15:53:00
8:53 AM,33.1,28.9,85,30.29,10.0,Calm,Calm,-,N/A,,Clear,0,2012-12-31 16:53:00
9:53 AM,34.0,30.0,85,30.32,10.0,Calm,Calm,-,N/A,,Clear,0,2012-12-31 17:53:00
10:53 AM,35.1,28.9,78,30.33,10.0,Calm,Calm,-,N/A,,Mostly Cloudy,0,2012-12-31 18:53:00
11:53 AM,37.0,30.9,79,30.33,10.0,Calm,Calm,-,N/A,,Overcast,0,2012-12-31 19:53:00
12:53 PM,37.0,30.0,76,30.32,10.0,NE,3.5,-,N/A,,Overcast,50,2012-12-31 20:53:00
1:53 PM,37.0,28.9,73,30.33,10.0,NNE,3.5,-,N/A,,Overcast,20,2012-12-31 21:53:00
2:53 PM,39.0,28.9,67,30.32,10.0,Calm,Calm,-,N/A,,Clear,0,2012-12-31 22:53:00
3:53 PM,36.0,30.0,79,30.34,10.0,North,4.6,-,N/A,,Mostly Cloudy,350,2012-12-31 23:53:00
4:23 PM,35.6,30.2,81,30.33,10.0,North,4.6,-,N/A,,Scattered Clouds,350,2013-01-01 00:23:00
4:53 PM,36.0,32.0,86,30.35,10.0,North,5.8,-,N/A,,Scattered Clouds,350,2013-01-01 00:53:00
5:02 PM,35.6,32.0,87,30.33,10.0,North,4.6,-,N/A,,Mostly Cloudy,360,2013-01-01 01:02:00
5:53 PM,36.0,33.1,89,30.36,10.0,Variable,6.9,-,N/A,,Mostly Cloudy,0,2013-01-01 01:53:00
6:53 PM,36.0,34.0,93,30.38,10.0,North,3.5,-,N/A,,Overcast,350,2013-01-01 02:53:00
7:44 PM,35.6,33.8,93,30.39,9.0,NNE,4.6,-,N/A,,Mostly Cloudy,30,2013-01-01 03:44:00
7:51 PM,35.6,33.8,93,30.39,8.0,NNE,4.6,-,N/A,,Scattered Clouds,30,2013-01-01 03:51:00
7:53 PM,35.1,33.1,92,30.41,8.0,NE,4.6,-,N/A,,Scattered Clouds,40,2013-01-01 03:53:00
8:53 PM,34.0,32.0,92,30.43,10.0,Calm,Calm,-,N/A,,Mostly Cloudy,0,2013-01-01 04:53:00
9:17 PM,35.6,30.2,81,30.41,10.0,Calm,Calm,-,N/A,,Scattered Clouds,0,2013-01-01 05:17:00
9:32 PM,35.6,30.2,81,30.41,10.0,East,3.5,-,N/A,,Mostly Cloudy,90,2013-01-01 05:32:00
9:49 PM,35.6,30.2,81,30.41,10.0,Calm,Calm,-,N/A,,Scattered Clouds,0,2013-01-01 05:49:00
9:53 PM,35.6,30.2,81,30.41,10.0,ESE,3.5,-,N/A,,Scattered Clouds,110,2013-01-01 05:53:00
10:53 PM,32.0,28.9,88,30.45,6.0,Calm,Calm,-,N/A,,Clear,0,2013-01-01 06:53:00
11:53 PM,30.9,28.0,89,30.46,4.0,Calm,Calm,-,N/A,,Clear,0,2013-01-01 07:53:00